LUDI TANCE-4 01A

Last updated on Sat May 17 2025 00:02:46 GMT+0000 (Coordinated Universal Time)

1 57624U 23120A 25136.56521554 -.00000165 00000+0 00000+0 0 9993 2 57624 15.4090 203.7171 0002534 182.8044 141.0610 1.00268406 6564
UTC large
Height (km)
Speed (km/s)
/
Latitude / Longitude
Inclination (degrees)
Orbital Period (minutes)
Azimuth
Elevation
Range (km)
Doppler Factor

Next 0 passes for location: London (51.5072 / 0.1276)

Sorry there are no passes over London.